THORAD AGENA D DEB

Satellite information

Favourite Embed

Satellite Type and Status

DEBRISIN ORBIT

Key statistics

Satellite THORAD AGENA D DEB at a glance.

Uptime

20340

Days in orbit

Revolutions

≈ 13.9

Per day

Orbit

SSO

Sun Synchronous Orbit

Inclination

99.8

Latest

Satellite identification and parameters

Extended collection of information and parameters for THORAD AGENA D DEB.

Object identification

Identified? True

Debris? True

Object name: THORAD AGENA D DEB

International designator: 1970-025RN

Object number (NORAD): 42508

Object ID (CCSDS): 42508

Country: UNITED STATES OF AMERICA (US)

Current information (Y/N): Y

RCS size: SMALL

Orbital parameters

Period: 103.403 minutes

Inclination: 99.8331 deg

SMA: 7297.621 km

Apoapsis: 1007.706 km

Periapsis: 831.266 km

RAAN: 200.9893 deg

Eccentricy: 0.01208887

Argument of periapsis: 119.0847 deg

Mean anomaly: 242.2479 deg

Mean motion: 13.92614123 rev/day

Mean motion (dot): 0.00000722 rev/day2

B* drag term: 0.0005621136 1/REarth

Two-line elements (TLE)

Creation date: Dec. 11, 2025, 3:54 a.m.

Reference frame: TEME

Reference center: EARTH

Epoch: Dec. 10, 2025, 8:38 p.m. UTC

TLE line 0: 0 THORAD AGENA D DEB

TLE line 1: 1 42508U 70025RN 25344.85981168 .00000722 00000-0 56211-3 0 9996

TLE line 2: 2 42508 99.8331 200.9893 0120889 119.0847 242.2479 13.92614123150023

Live tracking on map

Real-time ground track for satellite THORAD AGENA D DEB.

In-orbit conjunctions

A list of the most updated potential collisions computed for object THORAD AGENA D DEB.

Target Orbit TCA Probability of collision Miss distance Type
CZ-6A DEB SSO 2024-09-30 01:01:49 0.0001011752 218.0 (m) DEBRIS
CZ-6A DEB SSO 2024-08-22 09:24:28 0.0001594947 90.0 (m) DEBRIS

Associated space launch

Meteorological research and development satellite

THORAD AGENA D DEB was lifted into orbit during the mission ‘Thorad SLV-2G Agena D | Nimbus 4’, on board a Thorad SLV-2G Agena D space rocket.

The launch took place on April 8, 1970, 8:17 a.m. from Space Launch Complex 2E.

For more information about the launch, click the button.

Launch to space Thorad SLV-2G Agena D | Nimbus 4
Thorad SLV-2G Agena D | Nimbus 4

Agency: N/A

Status: Launch Successful

Launch date: April 8, 1970, 8:17 a.m. UTC

Rocket: Thorad SLV-2G Agena D

Launch pad: Space Launch Complex 2E

Location: Vandenberg SFB, CA, USA

...

Latest news about this satellite

There are no fresh news available about this satellite. Check back as we update our databases every day.


Newsletter sign-up

Weekly statistics, charts and insights to help you stay on top of the space industry.